Weather History for KLXV - March, 2013

Change the Weather History Date:

Saturday, March 16, 2013

  Actual Average Record
Temperature  
Mean Temperature 28 °F -  
Max Temperature 37 °F 37 °F 57 °F (2015)
Min Temperature 19 °F 11 °F -2 °F (1986)
Degree Days  
Heating Degree Days 37 41  
Month to date heating degree days 643 682  
Since 1 July heating degree days 8185 8392  
Cooling Degree Days 0 0  
Month to date cooling degree days 0 0  
Year to date cooling degree days 0 0  
Moisture  
Dew Point 24 °F    
Average Humidity 70    
Maximum Humidity 92    
Minimum Humidity 47    
Precipitation  
Precipitation 0.07 in 0.04 in 0.48 in (1984)
Month to date precipitation 0.67 0.46  
Year to date precipitation 2.29 1.78  
Sea Level Pressure  
Sea Level Pressure 29.92 in    
Wind  
Wind Speed 5 mph (NNE)    
Max Wind Speed 25 mph    
Max Gust Speed 32 mph    
Visibility 6 miles    
Events Fog , Snow    
T = Trace of Precipitation, MM = Missing Value Source: NWS Daily Summary

Daily Weather History Graph

Daily Weather History Graph

Search for Another Location

Airport or City:

Trip Planner

Search our weather history database for the weather conditions in past years. The results will help you decide how hot, cold, wet, or windy it might be!

Date:

Astronomy

Mar. 16, 2013 Rise Set
Actual Time 7:14 AM MDT 7:13 PM MDT
Civil Twilight 6:47 AM MDT 7:40 PM MDT
Nautical Twilight 6:16 AM MDT 8:11 PM MDT
Astronomical Twilight 5:45 AM MDT 8:43 PM MDT
Moon 9:48 AM MDT (3/16) No Moon Set
Length of Visible Light 12h 52m
Length of Day
11h 59m
Waxing Crescent, 23% of the Moon is Illuminated
Mar 16
Waxing Crescent
Mar 19
First Quarter
Mar 27
Full
Apr 2
Last Quarter
Apr 10
New

Hourly Weather History & Observations

Time (MDT) Temp. Windchill Dew Point Humidity Pressure Visibility Wind Dir Wind Speed Gust Speed Precip Events Conditions
12:53 AM 32.0 °F 26.4 °F 15.1 °F 50% 29.80 in 10.0 mi ENE 5.8 mph - N/A   Clear
1:53 AM 34.0 °F - 15.1 °F 46% 29.79 in 10.0 mi Calm Calm - N/A   Partly Cloudy
2:53 AM 30.9 °F 26.2 °F 15.1 °F 52% 29.79 in 10.0 mi East 4.6 mph - N/A   Mostly Cloudy
3:53 AM 30.0 °F 21.7 °F 18.0 °F 61% 29.81 in 10.0 mi North 9.2 mph - N/A   Overcast
4:53 AM 28.0 °F 22.8 °F 21.9 °F 78% 29.81 in 10.0 mi North 4.6 mph - N/A   Overcast
5:53 AM 27.0 °F 21.6 °F 21.0 °F 78% 29.82 in 10.0 mi NNE 4.6 mph - N/A   Overcast
6:20 AM 26.6 °F 19.1 °F 23.0 °F 86% 30.09 in 2.5 mi NE 6.9 mph - 0.00 in Snow Light Snow
6:28 AM 26.6 °F 22.6 °F 23.0 °F 86% 30.09 in 5.0 mi North 3.5 mph - 0.00 in Snow Light Snow
6:53 AM 28.9 °F 21.9 °F 25.0 °F 85% 29.81 in 8.0 mi NE 6.9 mph - 0.00 in   Overcast
7:53 AM 28.0 °F 22.8 °F 26.1 °F 92% 29.86 in 10.0 mi SSE 4.6 mph - N/A   Overcast
8:53 AM 30.0 °F 25.2 °F 26.1 °F 85% 29.85 in 10.0 mi SE 4.6 mph - N/A   Overcast
9:53 AM 30.9 °F 22.8 °F 27.0 °F 85% 29.83 in 10.0 mi South 9.2 mph - N/A   Overcast
10:29 AM 30.2 °F 25.4 °F 26.6 °F 86% 30.07 in 2.0 mi SW 4.6 mph - 0.00 in Snow Light Snow
10:34 AM 30.2 °F 26.7 °F 26.6 °F 86% 30.07 in 0.8 mi South 3.5 mph - 0.00 in Snow Light Snow
10:43 AM 30.2 °F 23.4 °F 26.6 °F 86% 30.06 in 0.5 mi South 6.9 mph - 0.01 in Fog , Snow Snow
10:53 AM 30.0 °F 23.2 °F 27.0 °F 88% 29.84 in 2.0 mi South 6.9 mph - 0.01 in Snow Light Snow
11:01 AM 30.2 °F 23.4 °F 26.6 °F 86% 30.05 in 6.0 mi South 6.9 mph - 0.00 in Snow Light Snow
11:16 AM 30.2 °F 24.3 °F 26.6 °F 86% 30.05 in 2.5 mi South 5.8 mph - 0.00 in Snow Light Snow
11:25 AM 30.2 °F 26.7 °F 26.6 °F 86% 30.05 in 2.5 mi SW 3.5 mph - 0.00 in Snow Light Snow
11:39 AM 30.2 °F - 26.6 °F 86% 30.05 in 1.8 mi Calm Calm - 0.00 in Snow Light Snow
11:53 AM 30.0 °F - 27.0 °F 88% 29.82 in 2.0 mi Calm Calm - 0.00 in Snow Light Snow
12:02 PM 30.2 °F - 26.6 °F 86% 30.04 in 1.2 mi Calm Calm - 0.00 in Snow Light Snow
12:43 PM 32.0 °F - 26.6 °F 80% 30.03 in 3.0 mi Calm Calm - 0.01 in Snow Light Snow
12:53 PM 32.0 °F - 27.0 °F 82% 29.82 in 2.5 mi Calm Calm - 0.01 in Snow Light Snow
1:03 PM 33.8 °F 30.8 °F 26.6 °F 75% 30.02 in 7.0 mi Variable 3.5 mph - 0.00 in   Overcast
1:53 PM 34.0 °F 29.8 °F 21.9 °F 61% 29.75 in 10.0 mi West 4.6 mph - 0.00 in   Overcast
2:11 PM 32.0 °F 23.0 °F 24.8 °F 75% 29.99 in 2.5 mi West 11.5 mph - 0.00 in Snow Light Snow
2:19 PM 30.2 °F 24.3 °F 26.6 °F 86% 29.99 in 1.0 mi NW 5.8 mph - 0.00 in Snow Light Snow
2:38 PM 32.0 °F - 26.6 °F 80% 29.98 in 3.0 mi Calm Calm - 0.01 in Snow Light Snow
2:53 PM 32.0 °F 27.5 °F 27.0 °F 82% 29.76 in 5.0 mi SSE 4.6 mph - 0.01 in Snow Light Snow
3:01 PM 30.2 °F 22.6 °F 26.6 °F 86% 29.96 in 9.0 mi SSE 8.1 mph - 0.00 in   Overcast
3:53 PM 34.0 °F 28.0 °F 25.0 °F 70% 29.75 in 10.0 mi NW 6.9 mph - 0.00 in   Mostly Cloudy
4:09 PM 30.2 °F 17.4 °F 24.8 °F 80% 29.97 in 1.5 mi NW 20.7 mph 26.5 mph 0.00 in Snow Light Snow
4:13 PM 28.4 °F 16.2 °F 26.6 °F 93% 29.98 in 0.5 mi NW 17.3 mph 26.5 mph 0.00 in Fog , Snow Snow
4:17 PM 28.4 °F 13.8 °F 26.6 °F 93% 29.99 in 0.2 mi NW 25.3 mph 32.2 mph 0.00 in Fog , Snow Heavy Snow
4:33 PM 30.2 °F 21.9 °F 26.6 °F 86% 29.96 in 1.0 mi NNE 9.2 mph - 0.02 in Snow Light Snow
4:36 PM 30.2 °F 21.9 °F 24.8 °F 80% 29.97 in 3.0 mi NNE 9.2 mph - 0.02 in Snow Light Snow
4:46 PM 30.2 °F 26.7 °F 24.8 °F 80% 29.96 in 10.0 mi Variable 3.5 mph - 0.02 in   Overcast
4:53 PM 32.0 °F 24.8 °F 21.9 °F 66% 29.78 in 10.0 mi North 8.1 mph - 0.02 in   Overcast
5:36 PM 33.8 °F 29.6 °F 23.0 °F 65% 29.96 in 10.0 mi Variable 4.6 mph - N/A   Mostly Cloudy
5:53 PM 30.9 °F 23.5 °F 24.1 °F 76% 29.80 in 10.0 mi NNE 8.1 mph - N/A   Overcast
6:37 PM 30.2 °F 24.3 °F 24.8 °F 80% 29.97 in 10.0 mi NE 5.8 mph - N/A   Overcast
6:53 PM 30.9 °F 25.2 °F 23.0 °F 72% 29.79 in 10.0 mi NNE 5.8 mph - N/A   Overcast
7:53 PM 30.0 °F 26.5 °F 21.0 °F 69% 29.80 in 10.0 mi Variable 3.5 mph - N/A   Mostly Cloudy
8:53 PM 28.0 °F 20.8 °F 23.0 °F 81% 29.81 in 10.0 mi SW 6.9 mph - N/A   Mostly Cloudy
9:53 PM 27.0 °F 21.6 °F 23.0 °F 85% 29.80 in 10.0 mi NNE 4.6 mph - N/A   Mostly Cloudy
10:26 PM 26.6 °F 20.0 °F 21.2 °F 80% 29.99 in 3.0 mi NNW 5.8 mph - 0.00 in Snow Light Snow
10:28 PM 26.6 °F 21.2 °F 21.2 °F 80% 29.98 in 1.5 mi NNW 4.6 mph - 0.00 in Snow Light Snow
10:35 PM 26.6 °F 21.2 °F 24.8 °F 93% 29.99 in 0.5 mi North 4.6 mph - 0.01 in Fog , Snow Snow
10:46 PM 24.8 °F 17.9 °F 24.8 °F 100% 29.97 in 2.5 mi NE 5.8 mph - 0.02 in Snow Light Snow
10:53 PM 25.0 °F 19.3 °F 23.0 °F 92% 29.82 in 8.0 mi NNE 4.6 mph - 0.02 in   Overcast
11:00 PM 24.8 °F 19.1 °F 23.0 °F 93% 29.97 in 10.0 mi NE 4.6 mph - N/A   Mostly Cloudy
11:41 PM 24.8 °F 19.1 °F 21.2 °F 86% 29.96 in 5.0 mi NNE 4.6 mph - 0.00 in Snow Light Snow
11:51 PM 24.8 °F 16.9 °F 21.2 °F 86% 29.95 in 10.0 mi NNE 6.9 mph - 0.00 in   Scattered Clouds
11:53 PM 24.1 °F 15.2 °F 21.0 °F 88% 29.81 in 10.0 mi NNE 8.1 mph - 0.00 in   Scattered Clouds